#datetime,building,power
2022-12-11T00:00:00,pth,2.40
2022-12-11T00:02:00,pth,2.40
2022-12-11T00:04:00,pth,3.60
2022-12-11T00:06:00,pth,2.40
2022-12-11T00:08:00,pth,1.20
2022-12-11T00:10:00,pth,2.40
2022-12-11T00:12:00,pth,2.40
2022-12-11T00:14:00,pth,2.40
2022-12-11T00:15:00,pth,1.20
2022-12-11T00:17:00,pth,2.40
2022-12-11T00:19:00,pth,2.40
2022-12-11T00:21:00,pth,2.40
2022-12-11T00:23:00,pth,1.20
2022-12-11T00:25:00,pth,2.40
2022-12-11T00:26:00,pth,1.20
2022-12-11T00:28:00,pth,1.20
2022-12-11T00:29:00,pth,1.20
2022-12-11T00:31:00,pth,2.40
2022-12-11T00:33:00,pth,2.40
2022-12-11T00:35:00,pth,1.20
2022-12-11T00:37:00,pth,2.40
2022-12-11T00:38:00,pth,1.20
2022-12-11T00:39:00,pth,1.20
2022-12-11T00:41:00,pth,1.20
2022-12-11T00:43:00,pth,2.40
2022-12-11T00:45:00,pth,2.40
2022-12-11T00:46:00,pth,2.40
2022-12-11T00:48:00,pth,2.40
2022-12-11T00:50:00,pth,2.40
2022-12-11T00:51:00,pth,1.20
2022-12-11T00:53:00,pth,2.40
2022-12-11T00:54:00,pth,1.20
2022-12-11T00:56:00,pth,1.20
2022-12-11T00:57:00,pth,1.20
2022-12-11T00:59:00,pth,2.40
2022-12-11T01:00:00,pth,1.20
2022-12-11T01:02:00,pth,1.20
2022-12-11T01:03:00,pth,1.20
2022-12-11T01:05:00,pth,2.40
2022-12-11T01:07:00,pth,2.40
2022-12-11T01:10:00,pth,2.40
2022-12-11T01:12:00,pth,2.40
2022-12-11T01:13:00,pth,1.20
2022-12-11T01:15:00,pth,1.20
2022-12-11T01:17:00,pth,2.40
2022-12-11T01:19:00,pth,2.40
2022-12-11T01:21:00,pth,1.20
2022-12-11T01:23:00,pth,2.40
2022-12-11T01:24:00,pth,1.20
2022-12-11T01:26:00,pth,1.20
2022-12-11T01:28:00,pth,2.40
2022-12-11T01:30:00,pth,2.40
2022-12-11T01:31:00,pth,1.20
2022-12-11T01:32:00,pth,1.20
2022-12-11T01:33:00,pth,1.20
2022-12-11T01:35:00,pth,1.20
2022-12-11T01:37:00,pth,2.40
2022-12-11T01:38:00,pth,1.20
2022-12-11T01:40:00,pth,2.40
2022-12-11T01:41:00,pth,1.20
2022-12-11T01:43:00,pth,1.20
2022-12-11T01:44:00,pth,1.20
2022-12-11T01:46:00,pth,2.40
2022-12-11T01:49:00,pth,2.40
2022-12-11T01:50:00,pth,1.20
2022-12-11T01:52:00,pth,2.40
2022-12-11T01:54:00,pth,2.40
2022-12-11T01:55:00,pth,1.20
2022-12-11T01:57:00,pth,2.40
2022-12-11T01:59:00,pth,1.20
2022-12-11T02:00:00,pth,1.20
2022-12-11T02:01:00,pth,1.20
2022-12-11T02:03:00,pth,2.40
2022-12-11T02:06:00,pth,2.40
2022-12-11T02:07:00,pth,1.20
2022-12-11T02:09:00,pth,2.40
2022-12-11T02:11:00,pth,1.20
2022-12-11T02:13:00,pth,2.40
2022-12-11T02:15:00,pth,2.40
2022-12-11T02:16:00,pth,1.20
2022-12-11T02:18:00,pth,2.40
2022-12-11T02:20:00,pth,1.20
2022-12-11T02:21:00,pth,1.20
2022-12-11T02:22:00,pth,1.20
2022-12-11T02:24:00,pth,2.40
2022-12-11T02:26:00,pth,1.20
2022-12-11T02:28:00,pth,2.40
2022-12-11T02:30:00,pth,2.40
2022-12-11T02:32:00,pth,2.40
2022-12-11T02:34:00,pth,1.20
2022-12-11T02:36:00,pth,2.40
2022-12-11T02:38:00,pth,2.40
2022-12-11T02:40:00,pth,2.40
2022-12-11T02:42:00,pth,1.20
2022-12-11T02:44:00,pth,2.40
2022-12-11T02:46:00,pth,2.40
2022-12-11T02:47:00,pth,1.20
2022-12-11T02:50:00,pth,2.40
2022-12-11T02:52:00,pth,1.20
2022-12-11T02:54:00,pth,2.40
2022-12-11T02:56:00,pth,2.40
2022-12-11T02:57:00,pth,1.20
2022-12-11T02:59:00,pth,2.40
2022-12-11T03:01:00,pth,1.20
2022-12-11T03:03:00,pth,2.40
2022-12-11T03:04:00,pth,1.20
2022-12-11T03:05:00,pth,1.20
2022-12-11T03:07:00,pth,1.20
2022-12-11T03:08:00,pth,1.20
2022-12-11T03:10:00,pth,1.20
2022-12-11T03:12:00,pth,2.40
2022-12-11T03:13:00,pth,1.20
2022-12-11T03:15:00,pth,2.40
2022-12-11T03:17:00,pth,1.20
2022-12-11T03:18:00,pth,1.20
2022-12-11T03:19:00,pth,1.20
2022-12-11T03:20:00,pth,1.20
2022-12-11T03:22:00,pth,2.40
2022-12-11T03:25:00,pth,2.40
2022-12-11T03:26:00,pth,1.20
2022-12-11T03:28:00,pth,1.20
2022-12-11T03:30:00,pth,1.20
2022-12-11T03:31:00,pth,1.20
2022-12-11T03:32:00,pth,1.20
2022-12-11T03:34:00,pth,1.20
2022-12-11T03:36:00,pth,2.40
2022-12-11T03:39:00,pth,2.40
2022-12-11T03:41:00,pth,2.40
2022-12-11T03:43:00,pth,1.20
2022-12-11T03:45:00,pth,2.40
2022-12-11T03:46:00,pth,1.20
2022-12-11T03:48:00,pth,1.20
2022-12-11T03:49:00,pth,1.20
2022-12-11T03:51:00,pth,2.40
2022-12-11T03:52:00,pth,1.20
2022-12-11T03:54:00,pth,2.40
2022-12-11T03:56:00,pth,2.40
2022-12-11T03:58:00,pth,2.40
2022-12-11T04:00:00,pth,1.20
2022-12-11T04:02:00,pth,2.40
2022-12-11T04:03:00,pth,1.20
2022-12-11T04:05:00,pth,2.40
2022-12-11T04:07:00,pth,2.40
2022-12-11T04:09:00,pth,1.20
2022-12-11T04:10:00,pth,1.20
2022-12-11T04:11:00,pth,1.20
2022-12-11T04:12:00,pth,1.20
2022-12-11T04:13:00,pth,2.40
2022-12-11T04:14:00,pth,1.20
2022-12-11T04:16:00,pth,1.20
2022-12-11T04:17:00,pth,1.20
2022-12-11T04:19:00,pth,2.40
2022-12-11T04:22:00,pth,2.40
2022-12-11T04:24:00,pth,2.40
2022-12-11T04:26:00,pth,2.40
2022-12-11T04:28:00,pth,1.20
2022-12-11T04:30:00,pth,2.40
2022-12-11T04:32:00,pth,2.40
2022-12-11T04:33:00,pth,1.20
2022-12-11T04:35:00,pth,2.40
2022-12-11T04:37:00,pth,2.40
2022-12-11T04:39:00,pth,1.20
2022-12-11T04:41:00,pth,2.40
2022-12-11T04:42:00,pth,1.20
2022-12-11T04:44:00,pth,1.20
2022-12-11T04:45:00,pth,1.20
2022-12-11T04:47:00,pth,2.40
2022-12-11T04:49:00,pth,2.40
2022-12-11T04:50:00,pth,1.20
2022-12-11T04:52:00,pth,2.40
2022-12-11T04:55:00,pth,2.40
2022-12-11T04:57:00,pth,2.40
2022-12-11T04:58:00,pth,1.20
2022-12-11T05:01:00,pth,2.40
2022-12-11T05:03:00,pth,2.40
2022-12-11T05:05:00,pth,1.20
2022-12-11T05:07:00,pth,2.40
2022-12-11T05:09:00,pth,2.40
2022-12-11T05:11:00,pth,1.20
2022-12-11T05:12:00,pth,1.20
2022-12-11T05:14:00,pth,2.40
2022-12-11T05:16:00,pth,1.20
2022-12-11T05:18:00,pth,2.40
2022-12-11T05:20:00,pth,1.20
2022-12-11T05:22:00,pth,2.40
2022-12-11T05:24:00,pth,1.20
2022-12-11T05:25:00,pth,1.20
2022-12-11T05:27:00,pth,1.20
2022-12-11T05:29:00,pth,2.40
2022-12-11T05:31:00,pth,1.20
2022-12-11T05:33:00,pth,2.40
2022-12-11T05:35:00,pth,1.20
2022-12-11T05:37:00,pth,2.40
2022-12-11T05:39:00,pth,1.20
2022-12-11T05:40:00,pth,1.20
2022-12-11T05:42:00,pth,2.40
2022-12-11T05:44:00,pth,1.20
2022-12-11T05:46:00,pth,2.40
2022-12-11T05:48:00,pth,1.20
2022-12-11T05:50:00,pth,2.40
2022-12-11T05:52:00,pth,2.40
2022-12-11T05:54:00,pth,1.20
2022-12-11T05:55:00,pth,1.20
2022-12-11T05:57:00,pth,2.40
2022-12-11T05:59:00,pth,1.20
2022-12-11T06:00:00,pth,1.20
2022-12-11T06:01:00,pth,1.20
2022-12-11T06:03:00,pth,2.40
2022-12-11T06:04:00,pth,1.20
2022-12-11T06:06:00,pth,1.20
2022-12-11T06:07:00,pth,1.20
2022-12-11T06:08:00,pth,1.20
2022-12-11T06:09:00,pth,1.20
2022-12-11T06:11:00,pth,2.40
2022-12-11T06:12:00,pth,1.20
2022-12-11T06:13:00,pth,1.20
2022-12-11T06:15:00,pth,1.20
2022-12-11T06:17:00,pth,2.40
2022-12-11T06:19:00,pth,2.40
2022-12-11T06:21:00,pth,1.20
2022-12-11T06:23:00,pth,2.40
2022-12-11T06:25:00,pth,2.40
2022-12-11T06:27:00,pth,2.40
2022-12-11T06:29:00,pth,2.40
2022-12-11T06:32:00,pth,2.40
2022-12-11T06:34:00,pth,2.40
2022-12-11T06:36:00,pth,2.40
2022-12-11T06:37:00,pth,1.20
2022-12-11T06:40:00,pth,2.40
2022-12-11T06:41:00,pth,1.20
2022-12-11T06:42:00,pth,1.20
2022-12-11T06:44:00,pth,2.40
2022-12-11T06:46:00,pth,1.20
2022-12-11T06:47:00,pth,1.20
2022-12-11T06:49:00,pth,2.40
2022-12-11T06:52:00,pth,2.40
2022-12-11T06:54:00,pth,1.20
2022-12-11T06:56:00,pth,2.40
2022-12-11T06:58:00,pth,1.20
2022-12-11T06:59:00,pth,1.20
2022-12-11T07:01:00,pth,2.40
2022-12-11T07:03:00,pth,1.20
2022-12-11T07:04:00,pth,1.20
2022-12-11T07:06:00,pth,2.40
2022-12-11T07:09:00,pth,2.40
2022-12-11T07:11:00,pth,2.40
2022-12-11T07:12:00,pth,1.20
2022-12-11T07:15:00,pth,2.40
2022-12-11T07:17:00,pth,1.20
2022-12-11T07:19:00,pth,1.20
2022-12-11T07:20:00,pth,1.20
2022-12-11T07:22:00,pth,1.20
2022-12-11T07:23:00,pth,1.20
2022-12-11T07:24:00,pth,1.20
2022-12-11T07:26:00,pth,2.40
2022-12-11T07:29:00,pth,2.40
2022-12-11T07:31:00,pth,2.40
2022-12-11T07:34:00,pth,2.40
2022-12-11T07:35:00,pth,1.20
2022-12-11T07:37:00,pth,2.40
2022-12-11T07:39:00,pth,1.20
2022-12-11T07:40:00,pth,1.20
2022-12-11T07:42:00,pth,1.20
2022-12-11T07:44:00,pth,2.40
2022-12-11T07:46:00,pth,2.40
2022-12-11T07:48:00,pth,1.20
2022-12-11T07:50:00,pth,2.40
2022-12-11T07:52:00,pth,2.40
2022-12-11T07:54:00,pth,1.20
2022-12-11T07:56:00,pth,2.40
2022-12-11T07:58:00,pth,2.40
2022-12-11T08:00:00,pth,2.40
2022-12-11T08:02:00,pth,2.40
2022-12-11T08:04:00,pth,1.20
2022-12-11T08:06:00,pth,2.40
2022-12-11T08:08:00,pth,2.40
2022-12-11T08:10:00,pth,2.40
2022-12-11T08:12:00,pth,2.40
2022-12-11T08:14:00,pth,2.40
2022-12-11T08:16:00,pth,1.20
2022-12-11T08:18:00,pth,2.40
2022-12-11T08:20:00,pth,2.40
2022-12-11T08:22:00,pth,2.40
2022-12-11T08:23:00,pth,2.40
2022-12-11T08:25:00,pth,2.40
2022-12-11T08:26:00,pth,1.20
2022-12-11T08:28:00,pth,2.40
2022-12-11T08:29:00,pth,1.20
2022-12-11T08:31:00,pth,2.40
2022-12-11T08:32:00,pth,1.20
2022-12-11T08:34:00,pth,1.20
2022-12-11T08:35:00,pth,1.20
2022-12-11T08:37:00,pth,1.20
2022-12-11T08:39:00,pth,1.20
2022-12-11T08:41:00,pth,2.40
2022-12-11T08:42:00,pth,1.20
2022-12-11T08:44:00,pth,1.20
2022-12-11T08:45:00,pth,1.20
2022-12-11T08:47:00,pth,1.20
2022-12-11T08:49:00,pth,1.20
2022-12-11T08:50:00,pth,1.20
2022-12-11T08:52:00,pth,1.20
2022-12-11T08:53:00,pth,1.20
2022-12-11T08:55:00,pth,1.20
2022-12-11T08:56:00,pth,1.20
2022-12-11T08:59:00,pth,2.40
2022-12-11T09:01:00,pth,1.20
2022-12-11T09:02:00,pth,1.20
2022-12-11T09:04:00,pth,1.20
2022-12-11T09:06:00,pth,1.20
2022-12-11T09:07:00,pth,1.20
2022-12-11T09:09:00,pth,1.20
2022-12-11T09:10:00,pth,1.20
2022-12-11T09:12:00,pth,1.20
2022-12-11T09:14:00,pth,1.20
2022-12-11T09:17:00,pth,1.20
2022-12-11T09:18:00,pth,1.20
2022-12-11T09:20:00,pth,1.20
2022-12-11T09:22:00,pth,1.20
2022-12-11T09:24:00,pth,1.20
2022-12-11T09:26:00,pth,2.40
2022-12-11T09:27:00,pth,1.20
2022-12-11T09:29:00,pth,1.20
2022-12-11T09:31:00,pth,1.20
2022-12-11T09:33:00,pth,1.20
2022-12-11T09:35:00,pth,1.20
2022-12-11T09:38:00,pth,1.20
2022-12-11T09:40:00,pth,2.40
2022-12-11T09:42:00,pth,1.20
2022-12-11T09:44:00,pth,1.20
2022-12-11T09:46:00,pth,1.20
2022-12-11T09:47:00,pth,1.20
2022-12-11T09:49:00,pth,1.20
2022-12-11T09:51:00,pth,1.20
2022-12-11T09:53:00,pth,1.20
2022-12-11T09:55:00,pth,1.20
2022-12-11T09:56:00,pth,6.00
2022-12-11T09:58:00,pth,13.20
2022-12-11T10:00:00,pth,13.20
2022-12-11T10:02:00,pth,12.00
2022-12-11T10:03:00,pth,6.00
2022-12-11T10:05:00,pth,12.00
2022-12-11T10:07:00,pth,13.20
2022-12-11T10:09:00,pth,12.00
2022-12-11T10:11:00,pth,12.00
2022-12-11T10:13:00,pth,13.20
2022-12-11T10:14:00,pth,6.00
2022-12-11T10:15:00,pth,6.00
2022-12-11T10:17:00,pth,13.20
2022-12-11T10:18:00,pth,6.00
2022-12-11T10:20:00,pth,12.00
2022-12-11T10:22:00,pth,12.00
2022-12-11T10:24:00,pth,13.20
2022-12-11T10:26:00,pth,12.00
2022-12-11T10:28:00,pth,13.20
2022-12-11T10:29:00,pth,6.00
2022-12-11T10:30:00,pth,7.20
2022-12-11T10:32:00,pth,12.00
2022-12-11T10:34:00,pth,13.20
2022-12-11T10:35:00,pth,6.00
2022-12-11T10:37:00,pth,13.20
2022-12-11T10:39:00,pth,12.00
2022-12-11T10:40:00,pth,7.20
2022-12-11T10:42:00,pth,12.00
2022-12-11T10:44:00,pth,12.00
2022-12-11T10:46:00,pth,12.00
2022-12-11T10:48:00,pth,13.20
2022-12-11T10:50:00,pth,12.00
2022-12-11T10:52:00,pth,12.00
2022-12-11T10:54:00,pth,12.00
2022-12-11T10:55:00,pth,1.20
2022-12-11T10:57:00,pth,2.40
2022-12-11T10:59:00,pth,1.20
2022-12-11T11:01:00,pth,1.20
2022-12-11T11:03:00,pth,1.20
2022-12-11T11:05:00,pth,1.20
2022-12-11T11:06:00,pth,1.20
2022-12-11T11:08:00,pth,1.20
2022-12-11T11:09:00,pth,1.20
2022-12-11T11:11:00,pth,1.20
2022-12-11T11:13:00,pth,2.40
2022-12-11T11:16:00,pth,1.20
2022-12-11T11:18:00,pth,1.20
2022-12-11T11:20:00,pth,2.40
2022-12-11T11:23:00,pth,1.20
2022-12-11T11:25:00,pth,1.20
2022-12-11T11:27:00,pth,1.20
2022-12-11T11:29:00,pth,1.20
2022-12-11T11:31:00,pth,2.40
2022-12-11T11:33:00,pth,1.20
2022-12-11T11:35:00,pth,2.40
2022-12-11T11:37:00,pth,2.40
2022-12-11T11:38:00,pth,1.20
2022-12-11T11:40:00,pth,2.40
2022-12-11T11:41:00,pth,1.20
2022-12-11T11:42:00,pth,1.20
2022-12-11T11:44:00,pth,2.40
2022-12-11T11:46:00,pth,2.40
2022-12-11T11:47:00,pth,1.20
2022-12-11T11:49:00,pth,1.20
2022-12-11T11:51:00,pth,1.20
2022-12-11T11:53:00,pth,2.40
2022-12-11T11:54:00,pth,1.20
2022-12-11T11:56:00,pth,2.40
2022-12-11T11:57:00,pth,1.20
2022-12-11T11:59:00,pth,1.20
2022-12-11T12:01:00,pth,1.20
2022-12-11T12:02:00,pth,1.20
2022-12-11T12:05:00,pth,2.40
2022-12-11T12:08:00,pth,2.40
2022-12-11T12:10:00,pth,1.20
2022-12-11T12:12:00,pth,1.20
2022-12-11T12:14:00,pth,2.40
2022-12-11T12:17:00,pth,2.40
2022-12-11T12:20:00,pth,2.40
2022-12-11T12:22:00,pth,1.20
2022-12-11T12:24:00,pth,1.20
2022-12-11T12:25:00,pth,1.20
2022-12-11T12:28:00,pth,1.20
2022-12-11T12:30:00,pth,1.20
2022-12-11T12:32:00,pth,1.20
2022-12-11T12:33:00,pth,1.20
2022-12-11T12:35:00,pth,1.20
2022-12-11T12:36:00,pth,1.20
2022-12-11T12:37:00,pth,2.40
2022-12-11T12:39:00,pth,1.20
2022-12-11T12:41:00,pth,1.20
2022-12-11T12:42:00,pth,1.20
2022-12-11T12:45:00,pth,2.40
2022-12-11T12:46:00,pth,1.20
2022-12-11T12:47:00,pth,1.20
2022-12-11T12:49:00,pth,1.20
2022-12-11T12:51:00,pth,2.40
2022-12-11T12:53:00,pth,1.20
2022-12-11T12:54:00,pth,1.20
2022-12-11T12:56:00,pth,1.20
2022-12-11T12:58:00,pth,1.20
2022-12-11T12:59:00,pth,1.20
2022-12-11T13:01:00,pth,1.20
2022-12-11T13:03:00,pth,1.20
2022-12-11T13:04:00,pth,1.20
2022-12-11T13:06:00,pth,1.20
2022-12-11T13:07:00,pth,1.20
2022-12-11T13:09:00,pth,1.20
2022-12-11T13:11:00,pth,1.20
2022-12-11T13:12:00,pth,1.20
2022-12-11T13:14:00,pth,1.20
2022-12-11T13:16:00,pth,2.40
2022-12-11T13:18:00,pth,1.20
2022-12-11T13:20:00,pth,1.20
2022-12-11T13:21:00,pth,1.20
2022-12-11T13:24:00,pth,1.20
2022-12-11T13:26:00,pth,2.40
2022-12-11T13:28:00,pth,1.20
2022-12-11T13:30:00,pth,1.20
2022-12-11T13:33:00,pth,1.20
2022-12-11T13:35:00,pth,2.40
2022-12-11T13:37:00,pth,4.80
2022-12-11T13:39:00,pth,2.40
2022-12-11T13:41:00,pth,3.60
2022-12-11T13:43:00,pth,2.40
2022-12-11T13:44:00,pth,2.40
2022-12-11T13:46:00,pth,10.80
2022-12-11T13:47:00,pth,8.40
2022-12-11T13:49:00,pth,13.20
2022-12-11T13:50:00,pth,7.20
2022-12-11T13:52:00,pth,13.20
2022-12-11T13:53:00,pth,6.00
2022-12-11T13:55:00,pth,13.20
2022-12-11T13:57:00,pth,12.00
2022-12-11T13:59:00,pth,13.20
2022-12-11T14:00:00,pth,7.20
2022-12-11T14:02:00,pth,12.00
2022-12-11T14:03:00,pth,6.00
2022-12-11T14:05:00,pth,13.20
2022-12-11T14:06:00,pth,6.00
2022-12-11T14:08:00,pth,13.20
2022-12-11T14:10:00,pth,13.20
2022-12-11T14:12:00,pth,12.00
2022-12-11T14:14:00,pth,13.20
2022-12-11T14:16:00,pth,13.20
2022-12-11T14:18:00,pth,13.20
2022-12-11T14:20:00,pth,13.20
2022-12-11T14:22:00,pth,13.20
2022-12-11T14:24:00,pth,12.00
2022-12-11T14:25:00,pth,6.00
2022-12-11T14:27:00,pth,13.20
2022-12-11T14:29:00,pth,13.20
2022-12-11T14:30:00,pth,6.00
2022-12-11T14:31:00,pth,6.00
2022-12-11T14:33:00,pth,13.20
2022-12-11T14:34:00,pth,6.00
2022-12-11T14:36:00,pth,13.20
2022-12-11T14:38:00,pth,12.00
2022-12-11T14:40:00,pth,13.20
2022-12-11T14:42:00,pth,13.20
2022-12-11T14:44:00,pth,13.20
2022-12-11T14:46:00,pth,2.40
2022-12-11T14:47:00,pth,1.20
2022-12-11T14:48:00,pth,2.40
2022-12-11T14:50:00,pth,1.20
2022-12-11T14:52:00,pth,2.40
2022-12-11T14:54:00,pth,3.60
2022-12-11T14:56:00,pth,1.20
2022-12-11T14:57:00,pth,1.20
2022-12-11T14:59:00,pth,2.40
2022-12-11T15:00:00,pth,1.20
2022-12-11T15:02:00,pth,2.40
2022-12-11T15:04:00,pth,2.40
2022-12-11T15:06:00,pth,2.40
2022-12-11T15:08:00,pth,8.40
2022-12-11T15:09:00,pth,6.00
2022-12-11T15:10:00,pth,7.20
2022-12-11T15:12:00,pth,13.20
2022-12-11T15:14:00,pth,15.60
2022-12-11T15:16:00,pth,18.00
2022-12-11T15:18:00,pth,16.80
2022-12-11T15:20:00,pth,18.00
2022-12-11T15:22:00,pth,16.80
2022-12-11T15:23:00,pth,7.20
2022-12-11T15:25:00,pth,12.00
2022-12-11T15:26:00,pth,7.20
2022-12-11T15:28:00,pth,13.20
2022-12-11T15:30:00,pth,16.80
2022-12-11T15:31:00,pth,7.20
2022-12-11T15:32:00,pth,8.40
2022-12-11T15:34:00,pth,18.00
2022-12-11T15:35:00,pth,8.40
2022-12-11T15:37:00,pth,12.00
2022-12-11T15:39:00,pth,12.00
2022-12-11T15:40:00,pth,8.40
2022-12-11T15:41:00,pth,8.40
2022-12-11T15:43:00,pth,18.00
2022-12-11T15:44:00,pth,7.20
2022-12-11T15:46:00,pth,13.20
2022-12-11T15:48:00,pth,14.40
2022-12-11T15:49:00,pth,8.40
2022-12-11T15:50:00,pth,6.00
2022-12-11T15:52:00,pth,13.20
2022-12-11T15:53:00,pth,6.00
2022-12-11T15:54:00,pth,6.00
2022-12-11T15:56:00,pth,13.20
2022-12-11T15:57:00,pth,6.00
2022-12-11T15:59:00,pth,12.00
2022-12-11T16:01:00,pth,13.20
2022-12-11T16:03:00,pth,12.00
2022-12-11T16:04:00,pth,4.80
2022-12-11T16:06:00,pth,2.40
2022-12-11T16:08:00,pth,2.40
2022-12-11T16:12:00,pth,2.40
2022-12-11T16:14:00,pth,2.40
2022-12-11T16:16:00,pth,1.20
2022-12-11T16:17:00,pth,1.20
2022-12-11T16:19:00,pth,2.40
2022-12-11T16:21:00,pth,2.40
2022-12-11T16:23:00,pth,2.40
2022-12-11T16:25:00,pth,1.20
2022-12-11T16:27:00,pth,2.40
2022-12-11T16:28:00,pth,1.20
2022-12-11T16:30:00,pth,1.20
2022-12-11T16:32:00,pth,2.40
2022-12-11T16:33:00,pth,1.20
2022-12-11T16:35:00,pth,2.40
2022-12-11T16:36:00,pth,1.20
2022-12-11T16:38:00,pth,1.20
2022-12-11T16:40:00,pth,2.40
2022-12-11T16:42:00,pth,1.20
2022-12-11T16:44:00,pth,2.40
2022-12-11T16:46:00,pth,1.20
2022-12-11T16:47:00,pth,1.20
2022-12-11T16:49:00,pth,1.20
2022-12-11T16:50:00,pth,1.20
2022-12-11T16:52:00,pth,2.40
2022-12-11T16:53:00,pth,1.20
2022-12-11T16:55:00,pth,2.40
2022-12-11T16:57:00,pth,1.20
2022-12-11T16:59:00,pth,2.40
2022-12-11T17:00:00,pth,1.20
2022-12-11T17:02:00,pth,1.20
2022-12-11T17:04:00,pth,2.40
2022-12-11T17:06:00,pth,2.40
2022-12-11T17:08:00,pth,1.20
2022-12-11T17:09:00,pth,1.20
2022-12-11T17:11:00,pth,2.40
2022-12-11T17:12:00,pth,1.20
2022-12-11T17:14:00,pth,2.40
2022-12-11T17:16:00,pth,1.20
2022-12-11T17:17:00,pth,1.20
2022-12-11T17:19:00,pth,2.40
2022-12-11T17:21:00,pth,1.20
2022-12-11T17:23:00,pth,2.40
2022-12-11T17:24:00,pth,1.20
2022-12-11T17:26:00,pth,2.40
2022-12-11T17:28:00,pth,2.40
2022-12-11T17:30:00,pth,1.20
2022-12-11T17:32:00,pth,2.40
2022-12-11T17:34:00,pth,1.20
2022-12-11T17:35:00,pth,1.20
2022-12-11T17:36:00,pth,1.20
2022-12-11T17:38:00,pth,1.20
2022-12-11T17:40:00,pth,1.20
2022-12-11T17:41:00,pth,1.20
2022-12-11T17:43:00,pth,2.40
2022-12-11T17:45:00,pth,1.20
2022-12-11T17:47:00,pth,2.40
2022-12-11T17:49:00,pth,2.40
2022-12-11T17:51:00,pth,1.20
2022-12-11T17:52:00,pth,1.20
2022-12-11T17:54:00,pth,2.40
2022-12-11T17:56:00,pth,2.40
2022-12-11T17:58:00,pth,1.20
2022-12-11T17:59:00,pth,1.20
2022-12-11T18:01:00,pth,2.40
2022-12-11T18:03:00,pth,1.20
2022-12-11T18:05:00,pth,2.40
2022-12-11T18:06:00,pth,1.20
2022-12-11T18:08:00,pth,1.20
2022-12-11T18:09:00,pth,1.20
2022-12-11T18:11:00,pth,2.40
2022-12-11T18:13:00,pth,3.60
2022-12-11T18:15:00,pth,4.80
2022-12-11T18:16:00,pth,1.20
2022-12-11T18:17:00,pth,1.20
2022-12-11T18:19:00,pth,2.40
2022-12-11T18:20:00,pth,1.20
2022-12-11T18:22:00,pth,1.20
2022-12-11T18:23:00,pth,1.20
2022-12-11T18:24:00,pth,1.20
2022-12-11T18:26:00,pth,2.40
2022-12-11T18:28:00,pth,2.40
2022-12-11T18:30:00,pth,2.40
2022-12-11T18:32:00,pth,1.20
2022-12-11T18:34:00,pth,1.20
2022-12-11T18:35:00,pth,1.20
2022-12-11T18:37:00,pth,1.20
2022-12-11T18:39:00,pth,2.40
2022-12-11T18:42:00,pth,2.40
2022-12-11T18:44:00,pth,1.20
2022-12-11T18:46:00,pth,2.40
2022-12-11T18:47:00,pth,1.20
2022-12-11T18:49:00,pth,2.40
2022-12-11T18:51:00,pth,2.40
2022-12-11T18:52:00,pth,7.20
2022-12-11T18:54:00,pth,13.20
2022-12-11T18:56:00,pth,13.20
2022-12-11T18:58:00,pth,13.20
2022-12-11T19:00:00,pth,13.20
2022-12-11T19:02:00,pth,12.00
2022-12-11T19:04:00,pth,13.20
2022-12-11T19:05:00,pth,7.20
2022-12-11T19:07:00,pth,9.60
2022-12-11T19:09:00,pth,2.40
2022-12-11T19:10:00,pth,1.20
2022-12-11T19:12:00,pth,2.40
2022-12-11T19:14:00,pth,2.40
2022-12-11T19:16:00,pth,2.40
2022-12-11T19:17:00,pth,1.20
2022-12-11T19:19:00,pth,2.40
2022-12-11T19:21:00,pth,2.40
2022-12-11T19:23:00,pth,2.40
2022-12-11T19:25:00,pth,2.40
2022-12-11T19:27:00,pth,3.60
2022-12-11T19:28:00,pth,1.20
2022-12-11T19:30:00,pth,2.40
2022-12-11T19:32:00,pth,2.40
2022-12-11T19:34:00,pth,2.40
2022-12-11T19:36:00,pth,2.40
2022-12-11T19:37:00,pth,1.20
2022-12-11T19:39:00,pth,2.40
2022-12-11T19:41:00,pth,2.40
2022-12-11T19:43:00,pth,3.60
2022-12-11T19:44:00,pth,1.20
2022-12-11T19:46:00,pth,2.40
2022-12-11T19:48:00,pth,2.40
2022-12-11T19:49:00,pth,1.20
2022-12-11T19:50:00,pth,1.20
2022-12-11T19:52:00,pth,2.40
2022-12-11T19:53:00,pth,1.20
2022-12-11T19:55:00,pth,2.40
2022-12-11T19:57:00,pth,1.20
2022-12-11T19:58:00,pth,1.20
2022-12-11T19:59:00,pth,1.20
2022-12-11T20:01:00,pth,2.40
2022-12-11T20:04:00,pth,2.40
2022-12-11T20:06:00,pth,2.40
2022-12-11T20:07:00,pth,1.20
2022-12-11T20:08:00,pth,1.20
2022-12-11T20:09:00,pth,1.20
2022-12-11T20:11:00,pth,1.20
2022-12-11T20:13:00,pth,2.40
2022-12-11T20:15:00,pth,2.40
2022-12-11T20:16:00,pth,1.20
2022-12-11T20:18:00,pth,2.40
2022-12-11T20:20:00,pth,2.40
2022-12-11T20:21:00,pth,1.20
2022-12-11T20:23:00,pth,3.60
2022-12-11T20:25:00,pth,2.40
2022-12-11T20:26:00,pth,1.20
2022-12-11T20:28:00,pth,2.40
2022-12-11T20:30:00,pth,1.20
2022-12-11T20:32:00,pth,2.40
2022-12-11T20:33:00,pth,1.20
2022-12-11T20:35:00,pth,1.20
2022-12-11T20:36:00,pth,1.20
2022-12-11T20:38:00,pth,2.40
2022-12-11T20:40:00,pth,2.40
2022-12-11T20:42:00,pth,2.40
2022-12-11T20:44:00,pth,2.40
2022-12-11T20:45:00,pth,1.20
2022-12-11T20:47:00,pth,1.20
2022-12-11T20:49:00,pth,2.40
2022-12-11T20:51:00,pth,1.20
2022-12-11T20:53:00,pth,2.40
2022-12-11T20:54:00,pth,1.20
2022-12-11T20:56:00,pth,2.40
2022-12-11T20:57:00,pth,1.20
2022-12-11T20:58:00,pth,1.20
2022-12-11T21:00:00,pth,2.40
2022-12-11T21:01:00,pth,1.20
2022-12-11T21:02:00,pth,1.20
2022-12-11T21:03:00,pth,1.20
2022-12-11T21:05:00,pth,1.20
2022-12-11T21:07:00,pth,2.40
2022-12-11T21:09:00,pth,3.60
2022-12-11T21:11:00,pth,2.40
2022-12-11T21:13:00,pth,2.40
2022-12-11T21:15:00,pth,2.40
2022-12-11T21:17:00,pth,2.40
2022-12-11T21:18:00,pth,1.20
2022-12-11T21:20:00,pth,2.40
2022-12-11T21:22:00,pth,2.40
2022-12-11T21:24:00,pth,2.40
2022-12-11T21:25:00,pth,1.20
2022-12-11T21:26:00,pth,1.20
2022-12-11T21:28:00,pth,2.40
2022-12-11T21:30:00,pth,2.40
2022-12-11T21:32:00,pth,2.40
2022-12-11T21:33:00,pth,1.20
2022-12-11T21:35:00,pth,2.40
2022-12-11T21:36:00,pth,1.20
2022-12-11T21:37:00,pth,1.20
2022-12-11T21:39:00,pth,2.40
2022-12-11T21:40:00,pth,1.20
2022-12-11T21:42:00,pth,2.40
2022-12-11T21:44:00,pth,2.40
2022-12-11T21:46:00,pth,2.40
2022-12-11T21:47:00,pth,1.20
2022-12-11T21:49:00,pth,2.40
2022-12-11T21:51:00,pth,3.60
2022-12-11T21:52:00,pth,1.20
2022-12-11T21:54:00,pth,2.40
2022-12-11T21:55:00,pth,1.20
2022-12-11T21:56:00,pth,1.20
2022-12-11T21:58:00,pth,2.40
2022-12-11T21:59:00,pth,1.20
2022-12-11T22:01:00,pth,2.40
2022-12-11T22:03:00,pth,2.40
2022-12-11T22:05:00,pth,1.20
2022-12-11T22:07:00,pth,2.40
2022-12-11T22:09:00,pth,2.40
2022-12-11T22:11:00,pth,2.40
2022-12-11T22:13:00,pth,2.40
2022-12-11T22:15:00,pth,2.40
2022-12-11T22:16:00,pth,1.20
2022-12-11T22:18:00,pth,2.40
2022-12-11T22:19:00,pth,1.20
2022-12-11T22:21:00,pth,2.40
2022-12-11T22:22:00,pth,1.20
2022-12-11T22:23:00,pth,1.20
2022-12-11T22:25:00,pth,2.40
2022-12-11T22:27:00,pth,1.20
2022-12-11T22:28:00,pth,1.20
2022-12-11T22:29:00,pth,1.20
2022-12-11T22:31:00,pth,2.40
2022-12-11T22:32:00,pth,1.20
2022-12-11T22:33:00,pth,1.20
2022-12-11T22:35:00,pth,2.40
2022-12-11T22:36:00,pth,1.20
2022-12-11T22:37:00,pth,1.20
2022-12-11T22:39:00,pth,2.40
2022-12-11T22:41:00,pth,3.60
2022-12-11T22:43:00,pth,2.40
2022-12-11T22:45:00,pth,2.40
2022-12-11T22:47:00,pth,2.40
2022-12-11T22:49:00,pth,2.40
2022-12-11T22:51:00,pth,2.40
2022-12-11T22:54:00,pth,2.40
2022-12-11T22:55:00,pth,1.20
2022-12-11T22:57:00,pth,2.40
2022-12-11T22:59:00,pth,2.40
2022-12-11T23:00:00,pth,1.20
2022-12-11T23:02:00,pth,2.40
2022-12-11T23:03:00,pth,1.20
2022-12-11T23:05:00,pth,1.20
2022-12-11T23:07:00,pth,2.40
2022-12-11T23:09:00,pth,2.40
2022-12-11T23:10:00,pth,1.20
2022-12-11T23:12:00,pth,2.40
2022-12-11T23:14:00,pth,1.20
2022-12-11T23:16:00,pth,2.40
2022-12-11T23:18:00,pth,1.20
2022-12-11T23:19:00,pth,1.20
2022-12-11T23:20:00,pth,1.20
2022-12-11T23:21:00,pth,1.20
2022-12-11T23:22:00,pth,2.40
2022-12-11T23:24:00,pth,2.40
2022-12-11T23:25:00,pth,1.20
2022-12-11T23:27:00,pth,2.40
2022-12-11T23:30:00,pth,2.40
2022-12-11T23:32:00,pth,2.40
2022-12-11T23:34:00,pth,2.40
2022-12-11T23:36:00,pth,2.40
2022-12-11T23:38:00,pth,2.40
2022-12-11T23:40:00,pth,2.40
2022-12-11T23:41:00,pth,1.20
2022-12-11T23:43:00,pth,2.40
2022-12-11T23:44:00,pth,1.20
2022-12-11T23:46:00,pth,2.40
2022-12-11T23:47:00,pth,1.20
2022-12-11T23:49:00,pth,2.40
2022-12-11T23:50:00,pth,1.20
2022-12-11T23:52:00,pth,2.40
2022-12-11T23:54:00,pth,2.40
2022-12-11T23:55:00,pth,1.20